Weather observations for the past three days for
Fort Hood, Robert Gray AAF Ft Hood
Metric (Imperial)
Date Time (cdt) Wind (kph) Vis. (km) Weather Sky Cond. Temperature (ºC) Relative Humidity Wind Chill (°C) Heat Index (°C) Pressure Precipitation (cm)
Air Dwpt 6 hour altimeter (cm) sea level (mb) 1 hr 3 hr 6 hr
Max. Min.
24 23:55 SE 9 16.09 Mostly Cloudy FEW035 BKN044 27.1 24.7 87% 31 75.67 1007.5
24 22:55 S 9 9.66 A Few Clouds with Haze FEW045 27.9 25.7 88% 33 75.59 1006.5
24 21:55 N 9 9.66 Fog/Mist CLR 27.1 25.6 92% 31 75.54 1005.9
24 20:55 Calm 9.66 Fair with Haze CLR 29.2 25.8 82% 36 75.46 1004.8
24 19:55 SE 6 4.83 A Few Clouds with Haze FEW060 29.8 26.1 81% 37 75.44 1004.5
24 18:55 S 11 4.83 Partly Cloudy with Haze FEW045 SCT060 31.4 25.5 31.7 29.9 71% 39 75.44 1004.5
24 17:55 S 9 4.83 A Few Clouds with Haze FEW050 FEW340 31.1 24.9 70% 38 75.44 1004.5
24 16:55 S 6 6.44 Partly Cloudy with Haze FEW045 SCT060 SCT350 31.1 24.9 70% 38 75.46 1004.9
24 15:55 S 15 6.44 Mostly Cloudy with Haze BKN043 31.4 25 69% 38 75.51 1005.5
24 14:55 SE 22 G 33 16.09 Partly Cloudy FEW030 SCT040 31.1 24.7 69% 37 75.54 1005.8
24 13:55 S 20 16.09 Partly Cloudy FEW029 SCT037 SCT330 30.5 24.6 71% 36 75.59 1006.5
24 12:55 S 20 G 28 16.09 Mostly Cloudy SCT026 BKN035 BKN320 29.9 24.3 30.4 23.7 72% 35 75.62 1006.9
24 11:55 S 17 16.09 Overcast BKN021 OVC028 29.4 24.5 75% 35 75.64 1007.3
24 10:55 S 17 16.09 Overcast BKN017 OVC023 27.9 24.3 81% 32 75.64 1007.3
24 09:55 S 17 16.09 Overcast OVC018 26.7 23.9 85% 29 75.64 1007.3
24 08:55 S 13 16.09 Overcast OVC021 26.2 23.4 85% 28 75.64 1007.3
24 07:55 S 20 16.09 Partly Cloudy SCT021 24.9 23.1 90% 25 75.59 1006.7
24 06:55 S 13 14.48 Mostly Cloudy BKN016 23.6 22.7 25 23.2 95% 75.57 1006.3
24 05:55 S 13 16.09 Partly Cloudy SCT013 23.4 22.3 94% 75.54 1006.0
24 04:55 S 13 16.09 Fair CLR 23.7 22.5 93% 75.51 1005.6
24 03:55 S 15 16.09 Fair CLR 24 22.6 92% 23 75.49 1005.3
24 02:55 S 17 16.09 A Few Clouds FEW016 24.2 22.8 92% 24 75.51 1005.7
24 01:55 S 24 16.09 Mostly Cloudy BKN016 24.6 23 91% 25 75.54 1006.0
24 00:55 SE 22 16.09 Fair CLR 24.9 23.1 28.5 24.9 90% 25 75.62 1007.1
23 23:55 SE 24 16.09 Fair CLR 25.3 22.8 86% 26 75.62 1007.1
23 22:55 SE 20 16.09 Fair CLR 25.6 23 86% 27 75.64 1007.4
23 21:55 SE 22 11.27 A Few Clouds FEW034 26.9 23.1 80% 29 75.59 1006.8
23 20:55 SE 20 8.05 Mostly Cloudy with Haze FEW039 BKN250 27.6 23.6 79% 31 75.54 1006.0
23 19:55 SE 17 8.05 Mostly Cloudy with Haze FEW060 BKN250 27.8 24 80% 32 75.46 1004.9
23 18:55 SE 17 8.05 Mostly Cloudy with Haze FEW042 SCT055 BKN250 28.6 24.6 30.4 23.2 79% 33 75.46 1004.9 0.03
23 17:55 E 11 6.44 Mostly Cloudy with Haze FEW047 BKN250 28.7 25.7 84% 35 75.51 1005.6 0.03
23 16:55 E 15 9.66 Partly Cloudy with Haze FEW016 SCT035 29.6 25.7 80% 36 75.54 1005.9
23 15:55 E 15 9.66 Partly Cloudy with Haze SCT019 SCT300 28 25 84% 33 75.67 0.0
23 14:55 E 15 16.09 A Few Clouds FEW070 26 22.7 82% 28 75.77 0.0
23 13:55 E 9 16.09 Mostly Cloudy BKN025 BKN055 24.2 20.5 80% 25 75.84 0.0
23 12:55 SE 19 16.09 Thunderstorm BKN025 BKN060 23.2 20.5 25.6 21.1 85% 75.79 0.0 1.65
23 11:55 E 20 16.09 Partly Cloudy FEW070 SCT100 SCT140 23.5 21 86% 75.82 0.0
23 10:55 Calm 16.09 Thunderstorm BKN048 BKN055 OVC075 22.2 20.6 91% 76.12 0.0
23 09:55 SE 6 16.09 Partly Cloudy SCT120 SCT140 21.8 19.7 88% 76.12 0.0 0.81 1.65
23 08:55 SW 30 G 39 0.40 Thunderstorm Heavy Rain Fog FEW012 FEW019 OVC030 24.8 23.4 92% 25 76.07 0.0 0.84
23 07:55 Calm 16.09 Thunderstorm OVC009 24.7 23.8 95% 25 75.84 0.0
23 06:55 SE 19 16.09 Overcast BKN013 OVC022 24.5 23.8 24.7 23 96% 24 75.69 0.0
23 05:55 SE 11 16.09 Overcast BKN012 OVC020 24.7 24.2 97% 25 75.72 0.0
23 04:55 SE 7 14.48 Mostly Cloudy BKN014 BKN019 23.3 22.9 98% 75.69 1007.9
23 03:55 SE 9 14.48 Mostly Cloudy SCT012 BKN021 23.8 23.3 97% 75.69 1007.9
23 02:55 SE 9 16.09 Overcast BKN003 OVC024 22.9 22.5 98% 75.77 1009.0
23 01:55 E 15 16.09 Overcast OVC007 23.5 23 97% 75.79 1009.2
23 00:55 SE 13 16.09 Overcast BKN005 OVC029 22.6 21.9 22.6 20.3 96% 75.79 1009.3 0.05
22 23:55 SE 17 16.09 Mostly Cloudy SCT017 BKN031 22.2 21.5 96% 75.84 1010.1
22 22:55 Calm 16.09 Fair CLR 20.8 19.8 94% 75.82 1009.8
22 21:55 S 9 16.09 Fair CLR 20.3 19.5 95% 75.72 0.0 0.05
22 20:55 SE 15 16.09 Mostly Cloudy FEW035 FEW060 BKN250 20.7 19.5 93% 75.64 1007.4
22 19:55 SE 17 11.27 Thunderstorm Light Rain FEW006 SCT012 BKN060 OVC250 21.3 19.6 90% 75.69 1008.2 0.05
22 18:55 NE 31 11.27 Thunderstorm Light Rain FEW004 SCT034 OVC070 20.2 19.4 32.2 20.2 95% 75.62 1007.2 2.01 2.01
22 17:55 W 20 G 33 9.66 Thunderstorm Haze BKN047 OVC055 29.9 22.8 66% 34 75.57 1006.2
22 16:55 E 26 16.09 Mostly Cloudy BKN045 30.3 22.9 65% 34 75.36 1003.5
22 15:55 SE 26 16.09 Mostly Cloudy SCT036 BKN044 31.3 23.1 62% 36 75.57 1006.2
22 14:55 SE 26 16.09 Mostly Cloudy SCT034 BKN042 31.8 23.3 61% 37 75.62 1006.8
22 13:55 SE 28 16.09 Mostly Cloudy SCT034 SCT210 BKN310 31.1 23.4 64% 36 75.69 1007.8
22 12:55 SE 24 G 35 16.09 Mostly Cloudy SCT029 SCT034 BKN310 31 23.3 31.3 24.6 64% 36 75.74 1008.5
22 11:55 SE 24 16.09 Mostly Cloudy FEW025 SCT033 BKN270 BKN320 30.1 23.3 67% 35 75.79 1009.2
22 10:55 SE 22 16.09 Mostly Cloudy SCT022 BKN030 29.8 24.4 73% 35 75.79 1009.2
22 09:55 SE 22 11.27 Mostly Cloudy BKN015 BKN250 27 24 84% 30 75.84 0.0
22 08:55 SE 22 14.48 Mostly Cloudy BKN009 BKN015 26.3 24.1 88% 29 75.82 1009.6
22 07:55 SE 13 11.27 Fair CLR 25.3 23.7 91% 26 75.79 1009.2
22 06:55 SE 7 11.27 Fair CLR 24.7 23.5 26.7 24.5 93% 25 75.74 1008.6
22 05:55 SE 13 14.48 Fair CLR 25.2 23.6 91% 26 75.72 1008.2
22 04:55 S 19 16.09 A Few Clouds FEW015 25.5 23.7 90% 27 75.72 1008.2
22 03:55 SE 13 16.09 Partly Cloudy SCT015 25.4 23.4 89% 27 75.69 1007.8
22 02:55 S 22 16.09 Fair CLR 25.8 23.4 87% 27 75.72 1008.2
22 01:55 S 22 16.09 Partly Cloudy SCT015 26.3 23.5 85% 29 75.72 1008.2
22 00:55 SE 22 16.09 Fair CLR 26.6 23.6 31.6 26.6 84% 29 75.74 1008.5
Date Time (cdt) Wind (kph) Vis. (km) Weather Sky Cond. Air Dwpt Max. Min. Relative Humidity Wind Chill (°C) Heat Index (°C) altimeter (cm) sea level (mb) 1 hr 3 hr 6 hr
6 hour
Temperature (ºC) Pressure Precipitation (cm)